Dallas/Ft Worth, TX

3:36 PM CST on November 24, 2017 (GMT -0600)
Dallas-Fort Worth International

Weather History for KDFW - June, 2012

Change the Weather History Date:

Friday, June 8, 2012

  Actual Average Record
Temperature  
Mean Temperature 79 °F 80 °F  
Max Temperature 87 °F 90 °F 100 °F (1948)
Min Temperature 70 °F 70 °F 58 °F (1916)
Degree Days  
Heating Degree Days 0 0  
Month to date heating degree days 0 0  
Since 1 June heating degree days 0 0  
Since 1 July heating degree days 1777 2284  
Cooling Degree Days 14 15  
Month to date cooling degree days 129 114  
Year to date cooling degree days 816 536  
Since 1 June cooling degree days 129 114  
Growing Degree Days 28 (Base 50)    
Moisture  
Dew Point 61 °F    
Average Humidity 58    
Maximum Humidity 79    
Minimum Humidity 37    
Precipitation  
Precipitation 0.00 in 0.14 in 1.88 in (1918)
Month to date precipitation 1.79 1.15  
Year to date precipitation 21.49 17.40  
Sea Level Pressure  
Sea Level Pressure 29.92 in    
Wind  
Wind Speed 6 mph (East)    
Max Wind Speed 13 mph    
Max Gust Speed 16 mph    
Visibility 10 miles    
Events      
T = Trace of Precipitation, MM = Missing Value Source: NWS Daily Summary

Daily Weather History Graph

Daily Weather History Graph

Search for Another Location

Airport or City:

Trip Planner

Search our weather history database for the weather conditions in past years. The results will help you decide how hot, cold, wet, or windy it might be!

Date:

Astronomy

Jun. 08, 2012 Rise Set
Actual Time 6:19 AM CDT 8:35 PM CDT
Civil Twilight 5:50 AM CDT 9:04 PM CDT
Nautical Twilight 5:15 AM CDT 9:38 PM CDT
Astronomical Twilight 4:38 AM CDT 10:16 PM CDT
Moon No Moon Rise 10:50 AM CDT (6/8)
Length of Visible Light 15h 13m
Length of Day
14h 16m
Waning Gibbous, 77% of the Moon is Illuminated
Jun 8
Waning Gibbous
Jun 11
Last Quarter
Jun 19
New
Jun 26
First Quarter
Jul 3
Full

Hourly Weather History & Observations

Time (CDT) Temp. Heat Index Dew Point Humidity Pressure Visibility Wind Dir Wind Speed Gust Speed Precip Events Conditions
12:53 AM 73.0 °F - 63.0 °F 71% 29.96 in 10.0 mi NE 4.6 mph - N/A   Overcast
1:53 AM 72.0 °F - 63.0 °F 73% 29.95 in 10.0 mi North 5.8 mph - N/A   Overcast
2:53 AM 71.1 °F - 64.0 °F 78% 29.94 in 10.0 mi NNE 5.8 mph - N/A   Overcast
3:53 AM 71.1 °F - 63.0 °F 75% 29.94 in 10.0 mi NNE 4.6 mph - N/A   Overcast
4:53 AM 71.1 °F - 62.1 °F 73% 29.94 in 10.0 mi NNE 5.8 mph - N/A   Overcast
5:53 AM 70.0 °F - 63.0 °F 78% 29.94 in 10.0 mi NNE 5.8 mph - N/A   Mostly Cloudy
6:53 AM 71.1 °F - 62.1 °F 73% 29.96 in 10.0 mi ENE 5.8 mph - N/A   Mostly Cloudy
7:53 AM 72.0 °F - 62.1 °F 71% 29.97 in 10.0 mi East 5.8 mph - N/A   Overcast
8:53 AM 73.9 °F - 61.0 °F 64% 29.99 in 10.0 mi ENE 6.9 mph - N/A   Mostly Cloudy
9:53 AM 77.0 °F - 60.1 °F 56% 29.99 in 10.0 mi ENE 10.4 mph - N/A   Mostly Cloudy
10:53 AM 77.0 °F - 59.0 °F 54% 29.98 in 10.0 mi Variable 5.8 mph - N/A   Mostly Cloudy
11:53 AM 80.1 °F 80.7 °F 59.0 °F 48% 29.97 in 10.0 mi ENE 9.2 mph - N/A   Mostly Cloudy
12:53 PM 82.0 °F 82.4 °F 60.1 °F 47% 29.95 in 10.0 mi Variable 4.6 mph - N/A   Mostly Cloudy
1:53 PM 82.0 °F 82.1 °F 59.0 °F 45% 29.94 in 10.0 mi East 8.1 mph - N/A   Mostly Cloudy
2:53 PM 84.2 °F 83.8 °F 59.0 °F 42% 29.93 in 10.0 mi East 4.6 mph - N/A   Mostly Cloudy
3:53 PM 86.0 °F 84.9 °F 57.0 °F 37% 29.89 in 10.0 mi NE 8.1 mph - N/A   Scattered Clouds
4:53 PM 84.9 °F 84.4 °F 59.0 °F 41% 29.87 in 10.0 mi South 6.9 mph - N/A   Scattered Clouds
5:53 PM 86.0 °F 86.1 °F 61.0 °F 43% 29.84 in 10.0 mi East 8.1 mph - N/A   Mostly Cloudy
6:53 PM 84.9 °F 84.8 °F 60.1 °F 43% 29.83 in 10.0 mi SE 6.9 mph - N/A   Scattered Clouds
7:53 PM 82.9 °F 82.8 °F 59.0 °F 44% 29.83 in 10.0 mi ESE 9.2 mph - N/A   Scattered Clouds
8:53 PM 78.1 °F - 60.1 °F 54% 29.84 in 10.0 mi ESE 4.6 mph - N/A   Scattered Clouds
9:53 PM 77.0 °F - 60.1 °F 56% 29.85 in 10.0 mi SE 4.6 mph - N/A   Scattered Clouds
10:53 PM 75.0 °F - 61.0 °F 62% 29.86 in 10.0 mi SE 4.6 mph - N/A   Partly Cloudy
11:53 PM 75.0 °F - 62.1 °F 64% 29.86 in 10.0 mi South 5.8 mph - N/A   Partly Cloudy